STARLINK-34929, 65178

Orbit data source: Space-Track

STARLINK-34929, 65178 is a payload satellite owned by SpaceX/Seattle (US) in SSO that was launched on Thu, 14 Aug 2025 UTC via an FALCON 9 launch vehicle from the Air Force Western Test Range (AFWTR). Payload-class satellites include a variety of spacecraft equipped with specific instruments for various scientific and technological missions. These include communications satellites like Starlink; space stations such as the ISS; scientific satellites like the Hubble; Earth observation satellites from companies like Planet Labs, Umbra, and HawkEye 360; GPS; miniature CubeSats for education and research; and military/defense satellites.

Loading next visibility...
Identifier
65178, 2025-175E
Orbit
SSO
Country
Flag of USUS
Related business
Manufacturer
SpaceX/Seattle
Mission
Operational Commercial Communications
Bus & Motor
STARLINK V2MO, Unknown motor
Mass
575 kg wet, ~530 kg dry
Launch date (UTC)
2025-08-14 (10 months ago)
Launch vehicle
FALCON 9
Launch site
Air Force Western Test Range (AFWTR)
Object type
Payload
Rocket body
Debris
Shape & HBR
Box + 2 Pan, 17.7 m
Radar Cross Section
36.964 m², Large (>1 m²)

Expand to show TLE details & history
Last TLE update: 17 hours ago

TLE from 17 hours ago
0 STARLINK-34929
1 65178U 25175E   26171.21133580  .00013939  00000-0  96786-3 0  9991
2 65178  97.3411  42.5658 0002027  90.6639 269.4820 15.05661848 48061
Epoch: 2026-06-20T05:04Z
TLE epoch observation values (Epoch: 2026-06-20T05:04:19.413Z)
Latitude
-0.00008°
Longitude
58.05571°
Altitude
552.56 km
Speed
7.585 km/s
True Right ascension
02h 50m 15s
True Declination
0° 00' 00"
Sunlit
Object was in daylight at epoch
Visualization orbit readout
Latitude
Unknown
Longitude
Unknown
Altitude
Unknown
Speed
Unknown
Apparent Right ascension
Unknown
Apparent Declination
Unknown
Sunlit
N/A
Visualization observer readout
Local Sidereal Time
08:32:34
Azimuth
Unknown
Elevation
Unknown
Doppler factor
Unknown
Orbital elements
Apogee altitude
547.861 km
Perigee altitude
545.053 km
Semi-major axis
6,924.594 km
Eccentricity
0.0002
Inclination
97.3411°
RAAN
42.5658°
Arg. of periapsis
90.6639°
True anomaly
269.45877°
Mean anomaly
269.482°
Eccentric anomaly
269.47039°
Mean motion
3.76662 °/min
Orbital period
95.58 mins
BSTAR
0.00096786
Loading maneuver chart data...
Computing Atmospheric mass density...
Loading historical data...
Loading historical data...
Loading historical data...
Loading historical data...
Loading historical data...
Loading historical data...
Loading historical data...

Documentation

Showing up to 5 results
|